Regional Weather Roundup
Issued by NWS Charleston, SC

Current Version | Previous Version | Graphics & Text | Print | Product List | Glossary On
Versions: 1 2 3 4 5 6 7 8 9 10 11 12 13 14 15 16 17 18 19 20 21 22 23 24 25 26 27 28 29 30 31 32 33 34 35 36 37 38 39 40 41 42 43 44 45 46 47 48 49 50
000
ASUS42 KCHS 221125
RWRCHS

REGIONAL WEATHER ROUNDUP
NATIONAL WEATHER SERVICE CHARLESTON SC
700 AM EDT TUE JUL 22 2014

NOTE: "FAIR" INDICATES FEW OR NO CLOUDS BELOW 12,000 FEET WITH NO
SIGNIFICANT WEATHER AND/OR OBSTRUCTIONS TO VISIBILITY.

NOT ALL STATIONS ARE QUALITY CONTROLLED BY THE NATIONAL
WEATHER SERVICE. USE DATA WITH CAUTION...ESPECIALLY
DEWPOINT OBSERVATIONS.

SCZ027-030-031-034>040-042>050-221200-
...SOUTH CAROLINA...

CITY           SKY/WX    TMP DP  RH WIND       PRES   REMARKS
N CHARLESTON   FOG       75  73  94 NE3       30.09R VSB 1/4
WATERFRONT PRK   N/A     79 N/A N/A N9          N/A
FORT JOHNSON   NOT AVBL
MOUNT PLEASANT FAIR      75  73  94 CALM      30.09R FOG
JOHNS ISLAND   MOSUNNY   77  68  73 CALM      30.08R HAZE
PINOPOLIS        N/A     75  73  94 E2        30.00S
MONCKS CORNER  LGT RAIN  75  75 100 CALM      30.09R
SUMMERVILLE    CLOUDY    73  73 100 CALM      30.10R
BEAUFORT MCAS  FOG       74  73  97 NE3       30.08R VSB 1/4
BEAUFORT ARPT  FOG       75  75 100 CALM      30.08R VSB 3/4
HILTON HEAD IS MOCLDY    73  73 100 CALM      30.09R
GEORGETOWN     NOT AVBL
WALTERBORO     PTSUNNY   75 N/A N/A CALM      30.10
ORANGEBURG     CLOUDY    75  72  90 NE5       30.11R FOG
BARNWELL       CLOUDY    73  73 100 NE5       30.11R
AIKEN          CLOUDY    72  72 100 E6        30.15R
MANNING        CLOUDY    73 N/A N/A MISG      30.10R VSB 1/2
KINGSTREE      NOT AVBL
COLUMBIA       CLOUDY    76  72  87 NE3       30.10R
SUMTER         FOG       73  73 100 E5        30.09R VSB 1/2
FLORENCE       FOG       73  72  96 NE5       30.11R VSB 1/4
MYRTLE BEACH   FOG       73  72  94 VRB6      30.09R VSB 1
N MYRTLE BEACH FOG       73  72  96 N6        30.09R VSB 1/2

$$

GAZ063-065-086>088-099>101-113>116-118-119-134-136>141-150-221200-
...GEORGIA...

CITY           SKY/WX    TMP DP  RH WIND       PRES   REMARKS
SAVANNAH ARPT  FOG       73  72  94 CALM      30.09R VSB 1
HUNTER AAF     MOCLDY    72  72 100 NW3       30.06R FOG
FORT STEWART   CLOUDY    73  72  94 CALM      30.08R
STATESBORO     NOT AVBL
SYLVANIA       NOT AVBL
CLAXTON        NOT AVBL
THOMSON        CLOUDY    73  73 100 E3        30.17R
AUGUSTA-BUSH   CLOUDY    72  70  93 CALM      30.10R
AUGUSTA-DANIEL CLOUDY    73  71  93 E5        30.12R
SWAINSBORO     DRIZZLE   73  73 100 CALM      30.11R
VIDALIA          N/A     72  72 100 CALM      30.10R
ALMA           PTCLDY    72  71  97 E3        30.09R FOG
WAYCROSS       NOT AVBL
JESUP          NOT AVBL
BRUNSWICK      PTCLDY    72  70  94 CALM      30.09R
SAINT SIMONS   CLEAR     73  72  96 NW3       30.07R

$$

SCZ027-028-034-036>038-045-046-048>050-GAZ119-141-221200-
...LAKE AND SUPPLEMENTAL COASTAL OBSERVATIONS...

STATION/POSITION TIME  TEMP    WIND        PRES    WAVE   SWELL
                       AIR SEA DIR/SP/G            HT/PER HT/PER/DIR
                 (UTC) (F)     (DEG/KT/KT) (MB)    (FT/S) (FT/S/D)
UPR LAKE MARION  NOT AVBL
WINYAH BAY       1100   74     330/  3     1018.0S
LAKE MURRAY      1100   73      80/  4/  6 1019.0S
ACE BASIN NERRS  1100   74        CALM     1018.0S
FORT PULASKI     1100   74     310/  4/  5 1018.7R
SAPELO ISLAND    1100   74     350/  2     1019.0R

$$

ANZ835-935-AMZ111-154-330-350-352-354-374-450-454-472-221200-
...C-MAN AND BUOY OBSERVATIONS...

STATION/POSITION TIME  TEMP    WIND        PRES    WAVE   SWELL
                       AIR SEA DIR/SP/G            HT/PER HT/PER/DIR
                 (UTC) (F)     (DEG/KT/KT) (MB)    (FT/S) (FT/S/D)
FOLLY BEACH CMAN 1100   78     350/  6/  7 1018.9R
BUOY 41004       1100   82 82  190/  6/  8 1017.5R   3/ 8   3/ 8
BUOY 41008       1100   80 83  260/  4/  6 1018.1R   2/ 9   2/110/ 9
5E ST. MARYS GA  1100      83                N/A     2/ 8
FRYING PAN BUOY  NOT AVBL
BUOY 41025       1100          VRB  2/  4  1020.5R   3/ 8   3/120/ 8
CAPE LOOKOUT NC  1100   78      CALM  /  1 1019.7R
BUOY 41002       1010   81 82  190/ 14/ 16 1020.8    4/ 7   2/140/ 7
BUOY 41010       1100   82 83  140/ 16/ 17 1017.4R   5/ 5   2/110/ 8
BUOY 41012       NOT AVBL
ST AUGUSTINE FL  1100   77     350/  4/  5 1018.1R
CAPERS NEARSHORE 1000   81     160/  6/  6   N/A
FRIPP NEARSHORE  NOT AVBL


$$



USA.gov is the U.S. government's official web portal to all federal, state and local government web resources and services.